Flag for Germany Weather past 2 weeks in Delbrück, North Rhine-Westphalia, Germany

Now
34 °F

Clear.


Feels Like: 25 °F
Forecast: 31 / 44 °F
Wind: 13 mph from Southwest

Location: Paderborn / Lippstadt

Current Time: Mar 4, 2015 at 6:26:16 AM

Latest Report: Mar 4, 2015 at 5:50 AM


Visibility: 10 mi

Pressure: 30.12 "Hg

Humidity: 93%

Dew point: 32 °F

Location of DelbrückLocation

Historic Weather in Delbrück — Graph

°F

Delbrück temperature yesterday

Maximum temperature yesterday: 45 °F (at 3:20 PM)
Minimum temperature yesterday: 32 °F (at 4:50 AM)
Average temperature yesterday: 37 °F

Past Weeks' High & Low Weather Summary

 TemperatureHumidityPressure
High48 °F (Mar 1, 11:50 AM)100% (Feb 17, 5:20 AM)30.74 "Hg (Feb 17, 5:20 AM)
Low25 °F (Feb 17, 5:20 AM)42% (Feb 28, 4:20 PM)29.33 "Hg (Feb 21, 6:50 AM)
Average38 °F85%29.92 "Hg
* Reported Feb 17 5:20 AM — Mar 4 5:20 AM, Delbrück, Weather by CustomWeather, © 2015

Note: Actual official high and low records may vary slightly from our data, if they occured in-between our weather recording intervals... More about our weather records

Advertising

Delbrück weather history for previous 24 hours

 ConditionsComfort  
Time TempWeatherWind HumidityBarometerVisibility
5:20 AM
Wed, Mar 4
34 °FClear.13 mph93%30.09 "Hg10 mi
4:50 AM34 °FClear.13 mph100%30.09 "Hg10 mi
4:20 AM34 °FClear.10 mph100%30.09 "Hg10 mi
3:50 AM34 °FPassing clouds.12 mph100%30.09 "HgN/A
3:20 AM34 °FPassing clouds.12 mph100%30.07 "HgN/A
2:50 AM34 °FPassing clouds.6 mph93%30.07 "HgN/A
2:20 AM32 °FPartly cloudy.6 mph100%30.07 "HgN/A
1:50 AM32 °FSnow flurries. Partly cloudy.7 mph100%30.07 "HgN/A
1:20 AM32 °FThunderstorms. Passing clouds.13 mph100%30.04 "HgN/A
12:50 AM32 °FThunderstorms. Passing clouds.13 mph100%30.07 "Hg4 mi
12:20 AM36 °FPassing clouds.10 mph100%30.04 "HgN/A
11:50 PM
Tue, Mar 3
37 °FPassing clouds.8 mph93%30.04 "HgN/A
11:20 PM36 °FPassing clouds.7 mph100%30.04 "HgN/A
10:50 PM37 °FPassing clouds.8 mph93%30.01 "HgN/A
10:20 PM37 °FPassing clouds.10 mph100%30.01 "HgN/A
9:50 PM37 °FPassing clouds.9 mph100%30.01 "HgN/A
9:20 PM37 °FPassing clouds.12 mph100%30.01 "HgN/A
8:50 PM37 °FPassing clouds.12 mph100%29.98 "HgN/A
8:20 PM37 °FPassing clouds.12 mph93%29.98 "HgN/A
7:50 PM37 °FPassing clouds.12 mph100%29.98 "HgN/A
7:20 PM37 °FLight rain. Passing clouds.14 mph100%29.95 "HgN/A
6:50 PM37 °FLight rain. Passing clouds.17 mph100%29.95 "Hg6 mi
6:20 PM37 °FLight rain. Passing clouds.17 mph100%29.95 "Hg6 mi
5:50 PM37 °FLight rain. Broken clouds.12 mph100%29.95 "Hg5 mi
5:20 PM39 °FLight rain. Broken clouds.18 mph93%29.95 "Hg5 mi
4:50 PM41 °FLight rain. Broken clouds.17 mph87%29.95 "HgN/A
4:20 PM43 °FPartly sunny.25 mph71%29.92 "HgN/A
3:50 PM43 °FPartly sunny.24 mph66%29.92 "HgN/A
3:20 PM45 °FPartly sunny.20 mph61%29.92 "HgN/A
2:50 PM43 °FScattered clouds.15 mph66%29.95 "HgN/A
2:20 PM41 °FScattered clouds.21 mph76%29.98 "HgN/A
1:50 PM43 °FScattered clouds.21 mph66%29.98 "HgN/A
1:20 PM43 °FScattered clouds.16 mph71%29.98 "HgN/A
12:50 PM43 °FScattered clouds.15 mph71%30.01 "HgN/A
12:20 PM41 °FScattered clouds.17 mph81%30.04 "HgN/A
11:50 AM41 °FScattered clouds.17 mph81%30.04 "HgN/A
11:20 AM39 °FScattered clouds.17 mph87%30.04 "HgN/A
10:50 AM37 °FScattered clouds.20 mph87%30.04 "HgN/A
10:20 AM37 °FScattered clouds.18 mph93%30.04 "HgN/A
9:50 AM37 °FScattered clouds.20 mph87%30.04 "HgN/A
9:20 AM36 °FScattered clouds.20 mph93%30.04 "HgN/A
8:50 AM34 °FScattered clouds.20 mph100%30.04 "HgN/A
8:20 AM34 °FPartly sunny.17 mph100%30.04 "HgN/A
7:50 AM34 °FScattered clouds.14 mph100%30.01 "HgN/A
7:20 AM34 °FScattered clouds.17 mph93%30.01 "HgN/A
6:50 AM34 °FPassing clouds.16 mph93%30.01 "HgN/A
6:20 AM34 °FPassing clouds.16 mph100%30.01 "HgN/A
Weather by CustomWeather, © 2015

See weather overviewHow to use our weather pages